Theta_e
317 322 328 336 339 339 339 339 338 338 337 336 337 338 338 337 331 327 327 327 323 318 324 327 333 334 336 336 335 334 332 331 331 331 331 331 331 330 331 330 330 330 331
315 315 317 323 328 334 337 338 338 338 336 336 337 337 337 337 337 333 328 327 326 323 320 323 325 331 335 336 337 336 332 331 331 330 331 331 330 329 329 329 328 329 330
316 316 316 316 320 326 333 336 337 337 336 336 336 336 336 337 337 336 335 331 327 326 323 322 322 325 329 335 336 336 334 332 331 331 330 329 330 329 329 327 326 326 327
315 316 316 316 315 317 323 330 334 335 335 335 335 335 334 335 337 337 336 336 332 328 326 325 327 327 326 330 331 335 335 332 331 331 330 329 328 328 328 328 328 328 327
314 314 315 316 317 316 318 321 325 331 333 334 335 335 335 333 334 335 335 334 334 331 329 327 324 326 327 328 328 332 333 331 329 328 328 327 326 326 325 325 326 327 327
313 314 314 316 316 317 318 320 322 325 330 332 334 334 333 333 332 332 333 332 333 332 333 333 326 323 327 327 326 328 327 328 326 326 327 326 325 326 325 325 325 325 325
312 313 313 315 316 316 317 318 320 321 324 330 331 332 331 331 331 330 331 331 332 332 329 330 326 325 326 327 329 326 321 327 327 326 326 327 326 325 324 324 324 324 324
314 314 315 315 316 316 317 318 318 319 321 325 328 329 331 332 333 332 332 331 331 331 330 327 328 327 326 328 327 326 326 329 329 328 329 329 329 328 327 324 324 324 324
313 313 314 315 317 317 318 318 319 319 320 321 325 329 331 331 331 332 333 333 333 332 331 329 329 327 327 328 326 326 326 324 324 324 325 327 330 329 330 328 327 326 325
314 313 314 315 318 319 319 319 320 321 321 321 321 324 327 328 331 330 329 329 330 329 330 329 328 328 328 329 326 324 324 324 324 325 325 326 330 330 331 331 331 330 329
315 314 314 314 315 317 318 317 317 319 320 321 322 322 324 327 329 329 329 329 328 327 330 329 331 329 325 325 326 325 323 323 324 325 327 329 329 329 329 329 329 328 327
312 314 315 316 316 316 317 318 318 318 318 320 321 322 322 323 326 327 328 328 329 328 326 325 324 324 324 323 322 321 322 323 324 324 325 326 326 327 326 326 327 326 326
311 312 312 314 317 316 319 319 319 319 319 320 320 322 322 323 324 324 326 328 330 327 326 324 324 322 321 320 319 318 320 320 322 322 321 320 323 325 324 323 323 323 322
308 309 311 312 316 318 319 319 318 319 318 319 319 320 321 321 323 324 326 326 327 327 325 322 320 320 320 318 318 316 317 318 319 318 312 311 311 313 317 319 318 317 311
306 308 310 311 312 313 315 315 316 316 316 316 317 318 318 319 319 322 325 326 325 324 324 322 314 313 314 314 312 312 311 309 309 307 307 308 310 308 307 307 308 308 306
305 306 308 309 310 311 313 313 314 315 315 316 316 317 317 318 320 321 322 324 324 322 323 315 308 306 307 309 307 305 304 304 304 303 303 304 302 298 298 299 299 301 301
304 305 306 307 308 309 310 312 312 312 313 312 313 313 314 314 316 317 318 318 318 318 321 307 304 303 304 302 301 301 300 300 298 297 297 294 295 297 297 297 297 298 298
304 304 305 306 306 306 306 307 307 308 308 309 309 310 309 310 309 309 310 310 311 312 313 307 301 299 300 297 296 295 294 293 291 291 291 294 296 295 295 293 295 296 297
304 304 304 303 303 304 304 305 305 305 304 304 304 304 304 304 303 304 304 303 302 302 306 305 299 297 296 294 292 291 291 291 292 292 291 293 293 292 292 292 294 295 294
301 302 303 304 303 302 301 302 303 303 302 300 300 299 298 299 298 298 297 297 297 299 299 299 297 293 292 291 291 291 292 293 292 293 292 292 291 290 290 291 291 291 291
297 298 299 299 299 300 300 300 300 300 299 297 296 295 294 293 293 293 294 292 293 294 294 294 294 293 293 293 292 291 291 291 292 293 293 292 291 291 292 291 292 292 292
296 295 296 296 297 297 297 297 298 299 298 297 296 295 294 294 293 293 293 291 292 293 293 294 293 293 292 291 291 291 291 292 294 292 290 289 290 291 292 292 291 290 291
296 295 294 295 296 296 294 295 295 296 296 295 294 293 292 290 290 291 290 291 291 289 291 292 292 291 291 290 290 291 291 291 290 290 288 290 290 291 292 290 290 290 291
295 295 294 294 294 295 293 293 293 294 294 293 293 293 293 292 291 290 290 290 290 290 289 289 289 289 289 289 289 289 289 288 288 289 288 289 290 290 289 289 290 290 292
295 295 294 293 293 294 293 292 292 292 292 292 292 292 292 292 291 290 290 290 290 290 288 286 286 286 286 286 286 287 287 287 289 289 288 287 288 288 288 290 290 289 289
294 294 294 293 292 292 292 292 292 292 292 292 291 291 290 291 292 290 290 289 290 290 289 287 286 286 285 285 284 284 285 286 285 287 287 286 287 287 287 288 289 288 288
Wind_Speed
16 16 17 17 19 19 20 20 20 20 21 23 23 22 22 23 23 22 21 23 24 26 26 24 22 21 21 21 20 18 16 17 17 17 18 18 18 19 18 16 16 17 17
16 17 18 19 19 19 19 22 21 21 20 20 22 24 25 25 25 25 24 22 24 27 28 28 26 24 22 23 22 22 19 19 19 19 19 19 20 19 20 19 19 18 18
18 18 19 20 21 20 20 20 21 22 22 21 23 24 26 26 27 27 26 25 23 26 30 30 30 28 25 24 24 23 23 23 22 22 21 20 20 20 21 21 21 21 21
21 20 21 22 22 22 21 21 21 21 26 26 26 29 27 29 30 27 27 26 25 24 22 29 31 30 28 24 24 23 24 24 25 25 25 24 23 21 21 22 23 24 24
20 21 22 22 21 23 23 22 22 22 23 24 26 27 27 27 31 30 31 31 28 32 32 29 29 32 30 27 25 22 23 25 26 26 27 27 27 25 24 24 24 25 25
18 19 20 20 19 21 22 22 23 23 24 25 25 24 25 28 28 27 30 32 33 36 34 33 27 29 30 27 24 23 20 24 28 27 28 28 29 29 28 28 27 26 27
13 15 16 17 17 19 21 22 22 23 23 21 19 19 25 27 28 30 31 33 29 34 33 31 29 29 25 22 25 20 16 28 29 29 30 30 29 29 30 29 30 29 29
12 11 12 14 15 16 18 20 21 22 22 20 15 11 5 12 21 23 22 28 28 31 31 27 24 24 24 21 21 19 28 26 28 27 27 29 30 30 29 28 29 32 31
12 11 12 13 14 14 15 16 18 20 21 21 21 13 5 6 6 13 15 16 16 18 21 23 20 21 23 21 16 20 22 19 22 22 24 25 24 25 25 28 30 30 30
13 12 11 11 12 13 14 16 17 18 19 21 20 22 26 17 8 7 12 8 9 13 16 18 16 12 11 12 11 14 15 17 18 21 24 24 22 23 24 24 24 24 22
12 11 11 11 12 12 14 15 16 17 16 17 20 21 19 23 21 7 8 10 5 6 7 9 8 9 5 5 5 6 13 17 18 17 14 16 17 18 17 17 16 18 18
15 12 13 12 12 12 13 13 14 16 18 17 19 21 23 16 13 9 7 9 11 5 7 10 8 8 6 2 6 14 16 17 16 14 13 15 11 12 9 12 10 10 13
14 14 15 14 12 12 12 11 13 15 16 17 16 20 22 22 21 18 16 10 8 7 5 7 9 7 7 17 19 25 26 17 14 8 3 7 13 13 15 15 16 16 19
14 15 15 15 13 10 10 9 11 12 14 14 17 19 18 19 18 15 15 10 4 6 4 4 5 8 9 12 13 13 9 11 13 13 6 4 7 11 16 20 21 20 12
12 12 12 12 14 10 11 11 11 11 11 12 14 15 17 17 18 17 16 13 7 3 3 9 4 5 5 4 3 5 5 5 6 5 7 10 12 11 12 14 15 17 15
12 12 11 10 10 10 10 8 8 8 8 6 6 6 7 5 4 6 7 7 6 5 2 6 3 6 4 4 3 4 4 6 9 10 11 13 12 10 10 11 9 9 11
10 10 9 9 10 9 9 8 7 5 5 6 5 4 3 3 2 1 1 2 3 2 3 3 3 4 2 2 3 4 6 8 11 14 13 11 10 5 7 10 11 12 13
7 7 6 6 7 7 7 7 6 6 6 4 3 3 3 3 4 3 3 3 2 2 3 4 4 3 3 1 4 5 8 9 10 10 10 7 5 6 9 11 13 13 13
4 5 4 4 5 5 5 5 5 5 4 4 3 4 4 4 4 4 4 5 4 3 2 5 4 3 1 2 5 6 8 7 7 10 11 8 9 11 12 11 11 12 13
2 1 1 1 2 3 4 3 2 3 4 6 6 7 7 6 5 5 5 5 3 4 5 7 5 3 2 2 4 6 8 9 12 8 6 8 12 15 13 12 11 13 15
3 3 3 3 3 3 3 2 2 3 5 7 8 10 11 10 9 6 5 6 5 5 5 5 5 3 3 4 5 7 8 13 10 4 9 13 13 12 9 10 10 11 14
5 3 3 2 1 1 1 0 1 2 4 4 5 6 7 9 10 10 11 9 6 4 4 4 4 2 1 2 4 5 7 6 3 3 13 16 12 10 10 10 13 16 14
7 6 5 5 3 2 2 2 3 4 4 4 4 4 4 4 5 5 7 10 11 10 8 5 4 3 2 1 4 5 6 7 8 13 14 10 8 11 11 15 17 14 10
12 10 9 8 7 6 6 5 5 5 5 5 4 3 3 3 3 3 4 5 5 6 6 5 4 2 1 2 4 5 8 11 10 6 5 5 9 14 18 15 11 7 4
13 13 12 12 10 9 9 8 7 5 5 5 4 3 3 3 2 2 2 3 3 3 2 2 1 1 1 1 2 5 6 10 8 2 5 6 10 20 17 11 7 8 18
15 13 13 12 13 11 12 12 11 8 8 7 7 6 6 4 5 3 2 3 3 3 2 0 1 1 2 3 5 4 4 6 6 6 1 11 11 11 10 9 11 19 17
Wind_Direction
274 271 267 268 262 258 257 255 253 250 251 250 250 249 246 247 246 245 248 250 245 240 238 237 238 242 241 243 245 248 251 254 254 257 261 261 261 260 261 261 262 264 263
276 273 271 268 265 267 263 260 257 250 247 248 249 247 249 250 249 246 247 247 252 242 241 241 242 244 245 242 245 248 254 256 260 262 263 265 265 262 259 260 262 262 262
273 271 270 267 266 265 264 263 260 252 251 247 249 249 247 248 250 247 245 246 247 251 242 242 243 245 246 242 245 250 254 259 263 265 268 267 267 266 266 264 264 265 266
269 267 264 262 262 262 263 264 264 259 255 255 252 250 250 248 247 249 248 246 245 241 248 246 244 245 245 246 248 252 256 259 263 265 266 268 269 268 268 266 265 267 268
272 265 264 263 262 259 257 258 259 259 260 257 249 252 253 249 250 247 245 248 246 243 245 244 250 244 242 247 250 256 262 263 264 265 267 267 268 268 269 268 268 268 269
280 272 267 267 267 264 260 257 257 258 259 256 252 254 256 256 254 247 255 257 258 245 252 244 240 243 238 243 250 256 271 270 268 266 267 269 269 266 266 267 267 267 267
291 279 270 271 270 265 262 262 265 265 263 258 257 257 252 252 252 253 256 260 259 263 250 245 240 231 234 243 247 257 259 273 272 275 272 273 269 265 264 264 264 266 268
302 290 273 269 265 267 261 257 259 265 265 258 249 254 255 250 243 240 238 246 246 255 253 238 231 234 237 243 242 241 266 272 274 272 272 271 269 269 266 261 261 266 267
309 299 282 277 274 269 264 262 262 261 264 259 246 240 239 239 274 225 232 241 242 238 234 233 229 234 235 239 245 265 271 276 276 276 274 272 269 265 264 263 262 260 264
316 308 294 282 272 267 263 266 270 269 269 267 262 250 252 257 250 262 254 246 232 242 239 231 218 212 219 238 258 263 281 287 281 280 277 273 272 269 268 267 261 258 259
330 323 308 292 280 273 271 266 267 262 264 270 267 265 260 254 252 252 268 257 241 233 232 225 214 187 188 219 249 286 295 297 287 283 281 277 273 271 271 271 265 260 254
330 333 324 310 292 285 278 278 273 269 267 263 267 264 262 256 237 235 239 262 264 246 191 165 174 160 154 118 338 319 313 309 295 282 273 283 275 263 239 259 239 231 235
320 320 326 324 303 292 289 289 286 279 272 268 269 266 262 263 260 250 245 255 255 186 180 190 180 200 251 288 301 288 286 286 279 267 178 231 251 236 245 254 253 257 255
312 310 316 318 318 318 309 305 300 292 287 277 271 271 269 263 265 249 240 233 250 233 177 153 193 235 251 261 263 266 273 261 252 226 203 210 236 245 250 254 260 259 264
316 314 318 313 314 316 313 316 306 303 300 298 289 277 268 268 269 256 245 238 204 209 213 192 149 189 179 172 204 239 239 243 238 246 259 273 284 293 290 285 278 278 287
321 325 326 325 328 323 318 318 313 319 314 309 309 304 279 267 255 256 248 243 205 227 251 37 91 161 174 166 216 239 263 285 283 286 297 297 296 308 319 306 311 310 289
328 326 331 345 340 337 336 335 339 345 355 348 348 6 18 9 50 45 40 75 101 178 209 94 112 129 139 211 264 298 299 305 304 307 313 311 313 314 295 313 308 297 291
351 350 352 340 343 344 350 349 349 353 356 15 27 28 21 26 39 45 57 85 114 161 151 123 130 146 165 332 314 314 317 321 305 304 300 303 283 304 303 299 298 293 290
0 9 9 3 0 4 5 11 18 25 34 31 44 49 50 57 59 74 88 87 76 66 154 148 131 158 182 313 316 306 304 296 303 310 303 272 286 299 304 306 295 290 293
309 317 303 327 329 345 355 12 34 71 72 65 64 69 68 71 75 76 86 83 74 87 87 103 99 125 155 267 335 330 336 337 331 320 283 283 290 305 306 299 296 294 299
271 282 288 300 331 344 340 352 35 66 85 88 81 76 74 70 70 69 65 62 67 74 81 84 86 73 39 17 6 340 328 325 320 297 312 307 302 304 296 301 303 306 302
249 250 255 267 292 340 311 343 125 110 109 98 95 85 75 66 66 72 75 86 88 87 91 91 91 107 123 30 311 312 313 326 321 305 324 306 303 306 311 304 299 305 300
238 239 243 239 232 227 224 208 171 147 142 140 138 130 111 96 88 86 82 78 73 83 96 89 115 117 144 253 295 306 308 313 299 300 315 305 313 317 317 310 309 308 304
222 221 223 225 223 219 211 205 192 177 172 170 166 157 144 125 99 103 104 90 79 78 70 70 76 75 23 326 313 306 310 310 307 302 325 284 326 318 316 310 308 308 288
220 223 225 224 222 221 216 212 202 192 189 187 189 183 166 148 156 85 128 143 144 129 49 33 55 167 207 49 329 332 330 331 326 318 321 306 321 323 312 302 305 315 318
225 223 224 225 226 225 223 219 210 203 204 202 196 196 206 193 200 209 185 192 212 194 186 60 345 359 7 339 327 332 319 317 319 315 58 342 327 343 322 301 301 316 314